Wind_Speed
23 24 24 23 21 18 16 15 13 14 15 14 14 14 14 13 11 9 8 7 7 7 6 6 6 7 7 8 7 7 7 7 6 6 6 6 5 4 3 3 2 2 0 0 0 1 1 1 2 2 2 2 3 4 3 3 4 4 4 4 4 4 5 7 10 10 9 9 10 10 10 10 9 9 10 11 10 10 11 11 12 12 13 13 13
20 22 23 22 21 20 19 18 18 18 18 17 17 17 16 14 12 12 11 10 9 8 8 8 8 9 9 10 10 10 10 9 8 8 8 8 8 8 7 6 6 6 4 3 3 3 3 2 1 0 0 1 2 2 2 2 2 2 2 2 2 3 5 7 9 11 12 12 12 13 13 13 13 12 12 12 11 10 10 9 10 10 11 11 12
18 20 22 21 21 22 22 22 22 22 22 21 20 19 17 16 14 13 13 12 11 11 11 11 11 12 12 12 12 12 11 10 10 10 10 10 10 11 11 9 9 9 8 7 6 6 6 6 5 4 3 3 3 3 3 1 1 0 1 2 3 4 5 7 9 12 14 15 15 15 15 16 16 15 14 13 12 12 11 11 10 10 10 12 14
20 21 21 21 22 23 23 23 22 21 21 21 21 20 19 18 17 15 14 14 14 14 14 13 13 13 14 13 13 12 12 12 12 12 12 12 12 12 13 13 12 12 11 10 10 10 9 8 8 7 6 6 6 6 5 5 4 4 3 4 5 5 6 7 9 11 14 16 16 16 16 16 16 16 15 14 13 12 12 11 11 11 12 13 14
18 20 20 21 22 21 20 21 20 20 20 20 21 20 19 19 19 18 17 16 16 16 15 15 15 16 15 14 13 12 12 13 14 15 16 15 15 14 14 13 13 14 14 13 12 13 12 10 10 10 9 8 8 8 8 7 7 7 7 7 7 8 8 8 9 11 13 16 17 17 17 17 17 16 15 15 15 14 13 12 12 13 14 14 14
16 17 18 18 18 18 18 19 19 19 20 21 20 19 18 18 18 18 18 18 18 18 17 17 17 16 15 15 15 14 14 15 17 19 19 18 18 17 17 15 13 14 16 15 14 14 14 13 12 13 12 11 10 10 10 9 8 8 9 10 10 11 11 11 12 13 14 15 17 17 18 18 18 17 15 15 15 16 16 15 14 14 14 15 15
15 14 14 14 15 16 16 17 16 16 17 17 17 16 16 17 17 17 18 19 20 20 19 19 20 19 18 18 18 18 17 18 20 22 22 21 20 20 20 19 17 16 16 16 16 16 16 15 15 15 14 14 13 12 11 11 11 11 12 13 13 13 13 14 14 15 16 17 17 18 18 18 18 18 17 16 16 16 17 19 20 18 17 18 19
13 12 11 12 13 13 11 11 12 11 11 10 10 10 12 13 14 15 17 18 19 18 18 19 20 21 21 21 20 21 21 22 23 24 25 24 22 22 22 22 22 20 19 18 18 18 17 17 17 16 16 15 14 13 13 13 13 13 14 15 15 15 16 16 16 17 17 19 19 19 19 19 19 19 18 18 18 18 18 21 23 24 24 24 24
11 10 11 11 10 9 8 7 8 7 6 4 4 4 5 5 7 9 11 13 14 13 13 14 17 19 20 20 20 21 24 25 27 28 28 26 25 25 24 23 24 24 22 21 20 20 19 18 18 18 16 15 14 14 14 14 14 14 15 16 17 17 17 17 17 18 19 20 21 21 21 21 20 20 20 19 20 21 21 23 25 26 28 28 27
10 8 9 10 9 7 7 7 6 6 5 5 4 4 3 2 3 4 6 7 7 7 8 9 12 14 16 17 17 19 22 24 26 28 28 26 26 27 27 26 25 26 25 24 23 22 21 20 19 19 17 15 15 15 16 15 15 15 16 17 18 18 18 18 18 19 20 21 22 22 23 23 21 21 21 21 21 22 23 24 26 27 28 30 29
11 8 7 9 9 8 7 6 5 5 6 6 4 3 3 3 4 4 4 4 5 6 6 7 8 10 11 12 14 16 18 21 23 24 24 25 26 28 29 29 29 28 28 27 26 24 22 21 20 19 18 17 17 17 16 16 16 16 18 19 19 19 19 19 20 21 22 23 23 24 25 25 24 22 22 22 22 23 23 24 27 28 29 32 33
11 9 7 8 9 8 8 7 6 6 6 6 6 6 6 7 6 6 5 5 6 7 7 8 9 10 10 11 13 15 16 17 19 20 22 23 26 28 30 31 31 30 30 29 28 25 23 21 20 18 18 19 19 18 18 17 17 17 18 19 20 20 20 21 22 23 24 24 25 25 25 25 26 25 24 24 24 25 25 25 26 28 29 31 34
8 7 6 8 8 9 9 8 7 7 7 7 8 8 9 9 8 7 7 8 8 9 8 9 10 11 13 13 14 15 15 15 16 18 20 21 24 27 29 30 31 31 31 31 29 25 22 21 19 19 19 20 20 19 19 19 19 19 19 20 20 21 22 23 24 25 25 25 26 27 26 25 26 26 25 25 27 28 28 28 27 27 29 30 32
5 6 6 7 7 7 7 7 8 9 9 8 8 8 8 8 8 8 9 10 11 12 11 11 12 13 15 16 16 17 16 15 15 16 18 20 21 24 27 29 30 30 31 30 27 24 22 20 19 20 21 20 19 19 20 21 21 21 21 22 22 22 23 24 24 25 25 25 27 28 26 25 26 27 26 25 27 28 29 30 29 29 31 32 33
6 7 6 6 7 6 5 5 7 8 8 7 7 6 5 5 5 7 7 8 9 10 11 12 13 14 15 16 17 17 16 15 15 16 17 18 19 21 23 26 27 28 30 28 24 23 22 20 20 20 20 19 18 19 20 20 21 21 22 22 23 24 26 26 26 26 26 27 28 28 28 27 28 28 28 28 28 29 29 30 30 32 34 36 36
7 6 6 7 8 7 5 6 7 7 7 7 6 5 5 4 4 6 6 7 8 9 10 11 12 14 15 15 16 16 16 15 16 17 18 19 19 19 21 24 26 28 28 25 23 23 22 21 21 20 19 18 19 20 21 20 20 20 22 23 25 26 27 27 27 27 28 29 30 30 30 30 29 29 30 30 30 31 31 32 33 34 37 39 39
7 7 8 10 9 7 7 8 8 8 9 9 8 7 7 8 8 9 9 9 9 9 10 11 13 14 15 15 16 17 17 17 17 18 18 19 20 18 20 24 27 26 24 23 23 23 22 21 21 20 19 20 22 22 22 21 21 22 24 25 27 27 27 28 28 29 31 32 33 33 33 33 32 32 32 31 32 32 33 36 36 34 36 39 40
8 9 10 10 9 8 8 9 9 9 10 10 10 10 11 12 12 11 11 10 10 10 10 12 14 15 15 16 16 18 18 18 18 18 17 19 19 19 21 25 27 25 23 23 23 22 21 21 21 21 21 22 23 22 22 22 24 25 26 27 28 28 29 30 32 33 34 35 36 36 37 36 35 35 34 34 34 33 34 37 37 36 36 37 38
11 11 11 10 9 9 10 11 11 11 12 13 14 15 15 15 14 13 12 12 12 12 12 14 16 17 17 17 17 18 19 19 19 19 18 18 18 19 22 25 25 24 23 22 21 20 21 21 21 21 21 21 20 21 22 24 25 26 27 28 29 31 31 33 35 36 37 38 39 38 38 36 35 34 33 32 32 31 32 35 36 36 38 38 37
14 14 15 15 15 14 14 15 15 15 16 16 16 16 16 15 15 14 15 14 13 13 15 16 17 18 18 18 18 19 20 20 20 20 18 16 16 19 22 24 24 24 23 22 20 21 22 22 21 20 20 19 20 23 24 26 26 26 28 29 31 33 34 35 37 38 38 38 37 36 34 32 30 29 27 26 25 24 25 26 27 30 32 33 33
17 17 17 17 18 18 17 17 17 17 16 16 15 15 15 16 16 17 17 17 16 17 18 19 20 20 20 19 19 19 19 19 18 18 16 14 15 17 20 23 24 24 24 22 22 21 22 21 20 21 21 21 23 25 26 26 26 27 29 31 32 33 34 35 35 34 33 31 30 29 29 27 26 25 24 22 21 20 19 18 19 21 22 24 25
17 17 17 17 18 18 18 17 18 17 17 17 17 17 17 18 19 20 20 19 18 19 20 20 21 21 22 21 20 19 18 16 15 14 13 13 14 16 19 23 24 23 22 21 21 21 22 22 21 21 23 24 26 26 26 26 27 28 29 29 30 30 29 29 28 27 26 25 25 25 25 25 24 24 24 24 23 22 20 19 18 17 18 20 22
19 19 19 18 18 18 18 18 18 18 18 18 19 20 21 21 22 22 21 19 18 20 20 20 21 20 20 20 19 17 16 15 14 13 12 12 14 16 19 22 23 23 22 20 19 19 20 21 22 23 24 25 24 24 24 25 26 26 26 25 25 24 24 23 22 22 22 23 23 24 24 24 24 25 26 26 25 24 23 21 20 19 18 18 21
19 20 20 20 19 19 19 19 19 20 21 21 22 22 22 23 23 22 19 17 18 20 20 20 20 19 18 18 17 16 15 14 13 13 13 12 13 16 19 22 23 23 21 20 19 20 21 22 23 23 22 21 21 21 22 22 21 21 21 21 21 21 21 21 21 21 21 22 23 23 23 24 25 26 26 26 25 24 24 23 22 21 21 21 21
18 19 20 22 22 22 22 22 21 21 22 22 23 24 24 23 22 20 18 17 18 20 20 19 19 19 19 17 15 14 14 14 14 14 14 14 15 17 20 22 22 21 20 20 20 20 20 19 19 19 18 17 17 17 16 16 16 16 17 18 18 20 21 21 22 22 22 23 23 24 24 25 25 26 25 25 25 25 25 25 24 23 23 24 24
18 18 19 21 22 23 23 22 22 21 20 19 19 20 21 22 21 19 18 18 20 21 21 20 20 21 19 17 15 15 15 14 15 16 16 16 17 18 19 19 19 19 19 19 19 18 16 16 16 15 14 13 12 13 13 14 14 15 15 16 17 19 21 22 24 24 25 25 26 25 26 26 25 25 25 25 26 26 26 27 28 28 27 27 28
21 21 21 20 20 21 22 23 23 22 21 20 20 19 18 17 17 18 18 19 19 20 21 21 21 21 19 18 17 16 14 14 17 17 16 17 17 16 17 17 17 17 16 15 14 13 13 13 13 12 11 10 10 12 13 15 16 17 17 18 19 21 22 23 24 25 25 25 25 24 24 25 25 26 26 26 26 27 27 28 29 30 30 30 31
24 25 25 25 23 20 20 21 23 23 22 22 22 22 21 19 17 17 18 19 19 20 21 21 21 20 19 18 16 13 12 15 17 18 16 16 15 15 15 14 13 12 11 10 10 10 10 10 10 9 10 10 11 13 15 17 19 20 20 20 21 22 22 23 23 23 23 24 24 24 25 25 26 27 28 28 28 28 28 29 30 31 29 29 30
29 29 30 30 30 27 24 22 22 24 25 24 22 21 22 23 22 21 21 21 21 20 19 19 19 18 17 16 13 12 13 17 18 17 15 13 13 12 11 9 7 6 6 6 7 8 7 7 8 9 10 11 13 16 18 19 19 19 20 20 21 22 22 23 23 23 24 25 26 27 27 28 29 30 30 30 30 29 29 29 30 30 28 28 29
30 31 31 32 32 32 31 28 26 25 26 27 26 25 24 23 22 21 21 20 19 18 17 17 16 14 14 14 12 11 14 16 16 13 12 10 9 8 6 4 4 4 4 5 6 5 3 5 6 8 11 14 18 19 19 18 18 19 19 20 20 22 23 24 24 25 26 27 28 28 29 30 31 31 30 30 30 29 29 29 28 28 27 27 28
28 29 29 30 30 29 29 29 27 27 27 27 27 27 26 24 21 20 20 20 18 17 15 14 12 11 11 12 11 11 12 12 12 11 9 7 5 4 3 3 3 2 2 5 6 4 3 4 6 10 14 18 20 20 18 18 18 19 19 20 20 22 23 24 25 26 27 27 28 28 28 28 29 29 30 30 30 29 29 28 28 27 27 27 28
28 27 27 28 28 27 26 26 26 27 27 27 26 26 26 25 23 21 20 17 14 12 11 10 10 10 10 10 10 12 12 11 10 8 6 4 3 3 3 3 2 0 4 6 7 5 5 6 9 14 18 20 21 19 17 16 16 17 19 20 21 22 24 25 26 27 27 27 27 27 27 27 28 29 29 30 30 30 29 29 28 27 27 27 28
33 31 27 25 25 26 25 24 25 26 26 25 25 25 24 24 23 21 17 12 9 8 8 8 9 10 10 10 9 11 12 11 9 7 5 4 4 4 4 3 2 3 5 7 7 6 7 9 12 16 20 21 21 19 17 15 16 17 19 21 22 23 24 25 26 26 26 26 26 27 27 27 27 28 29 29 29 29 29 28 28 27 27 27 27
36 36 33 29 26 26 26 25 25 25 25 25 24 23 22 21 21 18 15 13 14 14 13 13 13 13 14 13 11 11 11 10 8 7 6 6 6 6 4 3 3 4 6 7 7 7 8 11 14 18 21 21 20 19 18 18 18 19 20 21 22 23 24 25 25 25 24 25 25 25 26 26 27 28 29 29 28 28 28 27 27 27 27 27 28
33 34 35 34 30 27 26 26 25 24 24 24 23 22 21 20 17 15 15 17 20 22 20 19 18 16 16 15 14 12 10 8 7 7 7 8 7 6 4 3 5 6 7 8 8 8 10 13 17 19 21 20 18 18 18 20 21 21 22 23 25 25 25 25 24 23 23 23 24 25 25 25 26 26 27 28 28 28 28 28 27 27 27 27 27
29 31 32 31 30 28 26 23 22 22 23 24 23 22 21 19 18 17 19 22 24 25 24 22 20 19 17 16 14 12 10 8 8 8 9 8 7 6 5 4 4 5 6 7 8 9 11 15 18 19 19 19 17 17 18 20 22 22 24 25 26 26 26 25 24 23 23 24 24 24 24 24 24 25 26 27 27 27 27 27 27 26 26 26 26
24 27 27 24 25 28 26 22 21 22 23 24 24 22 21 22 22 23 24 25 25 25 24 22 21 19 17 16 14 12 11 10 9 9 9 8 7 6 4 3 2 3 5 8 10 11 14 16 17 18 18 17 15 16 19 22 24 25 25 25 24 25 25 24 24 24 24 24 24 24 24 23 23 23 24 26 26 26 26 26 25 25 25 24 24
18 22 24 23 24 26 26 23 23 24 24 24 23 23 22 24 25 25 26 26 25 24 22 20 19 17 16 16 15 12 10 7 5 5 5 5 5 4 2 1 1 4 7 10 12 13 15 16 16 16 14 13 14 17 20 22 24 26 26 25 24 25 25 24 24 24 24 24 24 24 23 23 23 22 23 25 25 25 24 24 24 24 24 23 23
14 18 20 20 21 23 24 22 22 23 23 22 23 24 25 26 26 26 25 24 22 21 19 18 17 16 15 15 14 10 8 6 4 3 5 5 5 3 2 2 4 7 9 11 14 14 14 14 14 13 12 14 16 19 21 22 24 25 25 25 26 26 25 25 24 25 25 25 25 24 23 22 22 21 21 22 22 22 22 22 22 22 22 21 21
12 15 16 14 15 18 21 22 23 24 24 24 27 28 29 28 26 23 22 21 20 19 18 17 16 15 14 13 11 9 7 5 3 2 4 6 6 5 5 5 7 9 10 12 13 12 11 11 11 11 14 16 18 20 22 23 25 25 25 26 27 27 26 25 25 25 25 26 25 24 22 22 21 21 20 20 20 20 20 20 20 19 19 19 18
18 20 18 17 19 22 25 28 29 28 28 28 29 28 27 25 23 22 21 21 20 18 15 14 13 12 10 9 8 7 5 5 4 3 4 6 6 6 7 7 8 9 11 12 11 9 9 9 10 13 16 18 20 22 24 25 26 26 27 29 30 30 28 26 26 26 26 26 25 23 22 22 22 21 21 20 19 18 18 18 18 18 17 16 15
27 28 28 28 30 31 32 33 32 31 30 28 26 24 23 22 21 20 19 17 15 13 11 10 10 9 8 7 7 7 8 7 5 5 4 4 5 6 6 6 7 9 10 10 9 7 8 8 10 14 17 19 23 26 27 28 28 27 28 30 32 31 29 28 27 26 25 25 24 22 22 22 21 20 20 19 19 18 17 17 17 17 16 14 12
33 34 34 35 35 35 35 33 32 30 28 26 22 20 19 19 18 16 13 11 11 11 11 11 10 9 9 10 11 12 12 10 7 6 4 5 5 4 3 5 7 8 9 8 7 7 7 8 11 15 18 21 25 27 29 29 29 28 28 29 31 32 30 28 27 25 24 24 23 22 22 21 20 19 19 18 17 16 15 15 15 15 14 12 11
35 35 34 33 33 32 31 30 28 27 25 22 19 17 15 15 14 13 12 12 12 12 11 11 10 10 11 13 13 13 12 10 8 6 6 7 6 3 3 5 6 7 7 6 6 6 6 8 12 16 19 22 25 27 28 29 29 28 26 27 30 32 30 29 27 25 24 24 25 24 22 21 20 19 19 18 16 14 13 14 14 13 12 11 10
30 30 30 29 27 25 24 23 23 22 19 17 16 16 15 14 14 14 14 14 13 12 11 9 8 8 9 11 12 11 11 10 9 7 7 5 3 1 3 5 5 6 6 5 5 5 6 7 12 17 20 22 24 27 28 29 29 28 25 25 28 31 30 28 26 24 22 23 24 24 23 21 19 18 19 18 15 13 13 13 13 11 10 9 9
26 26 26 26 24 23 21 20 19 18 16 15 16 16 15 14 15 15 15 14 13 13 11 9 7 6 7 8 9 10 9 9 9 8 6 4 3 2 4 5 5 6 6 5 4 5 5 8 13 17 20 21 24 26 27 28 28 27 25 24 26 29 30 28 27 24 22 22 24 24 22 21 19 18 18 17 14 12 12 12 11 9 7 6 6
22 22 21 20 19 18 16 15 14 14 14 14 14 14 14 14 14 15 14 13 11 9 7 6 5 5 5 5 6 7 8 8 8 7 5 4 3 3 5 5 5 5 5 5 4 4 5 8 13 17 18 21 23 25 26 27 27 27 25 24 25 29 30 30 28 25 22 21 23 23 23 22 20 19 19 17 15 13 12 10 8 7 6 4 3
17 16 15 14 13 12 11 10 9 9 10 10 11 12 13 13 13 12 11 10 8 7 6 6 6 5 4 4 4 4 5 6 5 4 4 4 3 4 5 5 5 5 6 5 4 3 5 9 14 16 17 19 21 23 24 25 26 27 26 24 24 26 29 30 30 28 25 22 21 22 22 22 21 20 19 18 16 15 13 11 9 9 9 7 6
12 11 11 11 12 12 12 11 11 10 10 11 11 12 12 12 11 10 9 9 8 7 6 6 5 4 4 3 3 3 4 4 3 4 4 3 2 4 5 4 4 5 6 6 5 4 5 9 13 14 15 18 20 21 23 24 26 27 27 26 23 23 26 28 29 29 27 25 22 21 21 21 21 19 18 18 17 16 14 13 12 11 11 9 9
8 8 9 10 12 12 12 11 11 11 10 10 10 10 10 9 9 8 8 8 8 7 6 4 3 2 2 2 3 3 4 3 3 4 4 2 2 4 5 4 5 6 6 6 5 5 5 8 10 11 13 16 18 20 21 23 25 27 28 26 23 21 23 26 29 29 29 27 24 21 20 20 21 19 18 18 17 16 15 14 13 12 11 10 9
7 6 8 9 10 10 10 9 9 9 9 8 8 7 7 7 7 7 7 7 7 7 6 5 4 3 1 2 3 4 4 4 4 4 4 2 2 4 5 4 5 6 6 5 4 4 5 6 7 10 12 15 17 18 20 22 24 25 26 26 24 22 22 24 27 28 29 29 27 23 21 20 20 20 19 18 17 16 15 14 13 11 10 9 8
Wind_Direction
192 193 186 181 187 197 195 188 176 172 180 184 183 183 183 183 183 184 197 221 242 260 281 290 290 295 297 297 301 307 312 311 309 309 309 313 317 314 312 320 328 333 15 86 32 61 102 119 104 82 62 49 48 49 60 77 75 68 62 55 37 8 353 339 329 336 348 340 330 331 325 311 304 296 287 284 284 283 279 276 277 278 280 285 287
182 187 185 180 183 192 195 192 186 185 186 185 185 188 192 193 194 194 197 212 235 251 267 280 284 288 293 295 296 299 302 301 300 301 301 300 299 297 292 287 294 299 289 279 295 298 282 281 298 158 319 354 8 10 18 47 56 43 29 20 356 312 303 309 317 326 338 342 337 336 335 330 327 325 318 312 309 306 299 296 294 291 292 297 302
170 174 180 181 181 187 195 196 195 195 194 193 195 201 207 212 216 214 211 217 230 239 251 263 273 281 286 289 290 294 296 295 296 298 299 297 293 291 290 285 282 286 288 283 284 288 280 281 294 299 297 304 305 311 319 339 353 288 324 333 310 296 301 312 321 325 330 335 335 333 331 328 326 324 321 317 316 317 312 309 306 300 297 296 296
171 171 175 179 182 188 195 197 197 200 205 208 210 214 220 225 228 229 233 237 238 242 251 259 263 268 276 281 282 284 285 284 286 289 292 292 287 284 286 285 279 278 282 282 281 284 279 274 282 290 292 295 296 304 311 314 319 323 324 323 316 313 312 312 312 313 317 323 327 326 323 322 323 322 320 319 318 318 314 309 305 302 298 292 287
175 176 178 183 186 191 199 203 204 208 217 221 222 225 231 233 233 236 243 245 238 235 239 249 256 259 266 271 270 273 276 273 273 275 277 278 276 274 275 277 276 274 276 278 278 280 281 279 280 284 290 295 297 301 306 309 315 319 318 316 312 311 310 306 304 303 305 311 318 321 319 319 320 320 321 320 317 317 315 313 308 303 298 291 286
169 176 186 193 195 198 203 209 217 221 223 224 226 231 235 234 235 239 244 247 246 243 239 241 245 247 252 257 258 259 261 260 262 264 265 266 267 267 267 267 267 269 271 273 273 273 276 278 277 282 290 294 295 300 305 307 307 304 304 306 307 309 310 310 309 308 306 308 312 315 317 317 316 316 318 316 313 314 313 309 304 298 292 288 285
179 185 193 198 202 206 210 213 220 225 224 225 228 231 231 232 236 240 242 247 254 257 253 246 243 247 255 258 253 248 247 251 256 258 260 261 261 263 265 264 262 261 264 266 265 264 266 269 271 276 284 288 293 300 304 303 300 299 299 300 302 305 308 311 312 312 310 310 310 311 313 314 312 310 309 306 302 301 298 294 292 290 286 284 283
188 190 191 190 190 195 202 207 211 217 222 227 231 232 232 235 240 244 248 254 261 265 264 257 253 255 261 261 251 242 240 246 252 256 258 259 260 261 261 262 262 259 258 259 258 256 257 261 266 271 277 283 290 294 296 295 295 296 297 298 300 303 306 309 312 312 310 309 310 310 309 310 309 307 305 302 298 294 288 285 287 289 287 283 282
169 168 170 171 173 171 168 170 177 184 190 195 201 208 218 229 238 250 257 261 266 268 264 259 255 254 258 261 256 248 244 246 250 253 256 257 260 260 258 257 259 257 255 254 252 252 255 260 266 270 274 279 283 285 287 288 290 292 294 296 298 301 305 308 310 310 308 308 309 309 307 308 310 309 307 306 301 295 291 287 286 287 287 286 285
151 151 150 150 153 147 137 141 146 143 140 143 156 172 179 197 224 247 259 264 272 274 264 257 255 254 256 259 259 255 252 253 254 255 256 255 257 259 257 256 256 254 253 251 248 251 257 263 268 272 275 277 277 279 282 285 288 292 293 295 297 300 302 305 306 307 308 308 308 309 309 310 312 312 310 308 303 298 296 293 289 288 287 287 288
153 157 153 144 144 146 145 144 139 134 139 147 161 178 192 217 232 241 261 278 288 291 286 278 272 269 265 263 264 264 262 262 261 261 261 259 257 258 257 256 257 254 251 250 249 252 256 260 265 270 275 279 278 277 279 284 289 294 295 297 298 299 301 303 307 310 310 309 309 310 310 311 313 312 309 307 303 299 297 295 291 289 288 287 288
162 170 163 143 142 154 164 160 148 155 173 179 183 186 198 218 232 238 253 272 282 284 284 283 282 283 279 271 267 267 266 266 265 265 265 263 260 259 258 257 256 253 249 248 249 251 253 257 262 268 277 281 280 280 282 286 290 293 295 297 299 301 304 308 312 313 312 310 309 309 310 311 310 310 309 308 305 301 298 295 291 289 288 288 288
169 178 168 162 169 180 188 184 169 176 194 200 202 206 213 223 230 233 241 251 259 264 268 272 275 277 277 274 269 266 264 264 266 266 266 266 264 262 260 257 255 251 246 244 245 247 251 255 260 270 277 278 278 281 285 290 294 295 295 296 298 301 304 308 310 310 309 310 309 310 311 310 307 307 309 307 304 302 300 298 296 292 290 288 287
194 195 181 182 195 202 204 196 187 192 200 208 219 225 225 226 225 228 234 241 247 252 255 259 264 267 270 272 272 272 269 264 264 266 267 267 266 263 261 258 253 245 240 239 241 246 252 256 264 273 275 273 275 281 287 292 294 294 295 295 297 299 301 303 304 303 304 305 306 307 309 307 304 303 303 300 298 298 299 299 299 295 292 290 289
207 213 209 204 206 209 212 209 208 213 218 225 234 235 231 235 237 240 246 250 255 258 256 254 256 260 265 269 270 273 272 267 263 264 266 269 269 265 261 255 246 237 235 237 240 246 252 257 264 268 267 267 274 282 285 287 287 289 290 291 293 295 297 299 301 301 303 304 304 305 305 304 301 300 299 298 296 295 296 295 294 293 293 293 293
211 224 227 218 216 213 210 218 226 236 248 254 257 259 266 278 275 272 276 275 271 271 268 263 261 258 261 267 270 272 272 269 265 265 267 270 270 266 260 252 243 235 234 235 239 244 249 253 258 258 256 261 271 277 279 280 281 283 283 284 287 290 292 296 299 301 302 303 302 303 302 301 299 297 296 296 295 294 293 290 287 288 290 290 289
223 238 239 236 239 228 212 219 230 241 256 267 274 277 283 288 286 284 289 292 290 285 277 271 270 267 263 264 266 268 270 271 271 272 272 269 268 266 259 250 241 234 231 234 238 242 246 250 252 251 254 263 271 275 278 282 283 283 283 284 287 289 293 297 298 299 299 299 299 299 298 297 295 293 291 289 289 289 288 286 286 287 286 286 286
246 254 248 239 236 227 225 235 241 242 250 260 267 271 276 281 282 282 286 293 297 293 281 270 268 269 267 263 263 265 267 268 270 272 273 270 267 264 256 246 239 235 234 235 236 238 243 247 250 254 263 270 274 276 280 283 284 284 286 288 290 292 295 297 297 297 296 296 295 295 294 293 292 290 289 287 285 283 281 280 282 282 282 282 284
254 256 250 238 231 233 235 237 237 240 247 254 261 268 273 275 276 278 284 293 295 287 276 267 263 264 265 262 261 263 265 265 266 269 271 269 264 258 250 243 238 237 236 235 234 238 246 252 255 260 265 267 269 273 277 280 282 284 287 288 290 293 295 296 296 296 296 295 296 295 294 294 293 291 290 289 287 283 279 277 275 274 274 276 279
254 253 253 252 253 252 246 242 245 251 257 262 266 269 271 273 275 277 283 291 290 277 269 265 262 263 265 263 260 260 262 263 265 268 270 267 260 254 247 242 239 237 235 237 241 248 252 253 254 256 256 258 264 270 274 277 280 283 285 287 290 293 294 295 295 296 297 297 298 298 298 299 299 298 297 295 292 288 283 279 275 270 271 274 277
260 258 257 257 258 257 254 253 255 259 262 264 266 265 264 265 268 274 281 286 280 270 266 265 263 264 265 265 262 260 260 262 265 267 267 260 253 251 248 243 240 238 239 244 250 253 250 247 248 252 257 262 267 270 273 276 279 282 285 288 291 293 294 295 296 297 298 299 301 302 304 307 309 310 310 309 307 302 297 294 286 274 268 272 280
262 261 260 260 260 260 259 258 258 259 259 260 259 258 258 260 263 269 276 278 273 267 265 265 264 264 264 264 264 264 264 265 265 263 262 255 249 249 249 244 240 239 240 243 244 243 242 245 250 256 262 267 270 272 275 279 283 287 290 292 293 294 296 297 299 301 303 306 309 311 314 318 321 322 323 322 321 319 315 312 306 290 271 264 271
264 263 263 265 265 264 263 263 262 262 260 260 259 259 260 262 265 268 272 272 266 263 263 263 262 263 263 263 265 266 265 266 263 260 257 251 247 249 248 243 239 238 237 235 232 233 240 249 257 262 267 271 274 278 282 286 290 293 295 297 299 301 304 306 308 311 313 314 315 316 320 323 324 323 322 321 321 320 318 315 312 306 293 276 270
268 264 263 265 266 266 264 264 264 263 262 262 262 263 264 264 265 267 267 262 258 259 261 261 261 263 265 266 267 266 264 262 257 252 248 246 250 254 250 242 238 237 235 234 236 242 250 258 264 269 273 277 281 284 288 292 296 300 303 306 309 311 313 313 313 314 315 317 319 321 321 321 319 316 314 315 315 314 312 310 307 304 300 295 287
273 269 268 269 270 269 268 267 267 267 266 266 265 264 264 263 262 260 255 249 252 258 260 261 264 267 269 269 268 267 266 260 250 243 240 241 246 248 244 240 239 240 240 242 247 252 257 264 270 275 281 285 286 288 290 293 298 303 308 310 311 312 312 311 310 311 313 315 318 317 314 311 310 308 308 308 309 308 307 306 305 302 299 296 294
275 274 274 274 274 271 269 268 268 268 267 268 268 265 262 259 255 250 245 243 248 255 258 262 267 269 268 268 270 272 269 256 242 237 237 238 239 237 235 235 238 242 245 249 254 259 264 268 274 280 285 286 286 287 290 294 296 299 302 304 306 308 308 308 308 306 305 306 306 304 303 303 303 304 304 304 303 304 304 303 302 300 298 296 294
274 273 272 273 274 275 272 268 265 265 264 264 266 266 265 261 251 243 240 240 244 252 259 264 266 265 265 269 271 271 261 242 231 228 230 233 233 231 232 235 238 242 247 252 257 261 267 274 280 285 283 280 282 289 295 298 299 300 299 299 299 300 301 302 303 303 303 304 303 303 303 304 304 304 304 303 301 301 301 300 299 298 296 295 293
270 269 268 266 266 269 272 268 264 262 261 260 261 264 267 267 259 249 246 247 252 259 263 264 263 263 266 269 268 263 246 229 223 221 222 225 228 230 232 235 238 244 253 261 266 273 281 285 283 275 270 274 286 293 294 293 294 294 294 294 296 299 301 304 307 308 309 311 311 310 309 308 307 307 306 304 302 300 299 299 297 296 295 293 291
270 268 266 264 261 262 264 264 261 259 259 258 258 260 264 264 261 258 259 262 265 266 263 259 259 262 266 266 266 258 236 220 214 214 215 218 223 224 224 230 242 260 278 293 302 304 297 280 264 263 277 297 307 306 301 297 297 299 302 305 307 308 310 311 312 311 311 311 310 309 308 307 306 306 305 304 302 300 300 298 297 296 295 293 290
270 267 265 264 262 261 261 261 259 258 259 260 259 258 257 256 255 258 262 264 262 257 255 255 256 260 264 260 255 248 229 213 204 206 208 209 213 217 223 249 273 284 303 325 338 334 294 264 270 292 314 322 321 317 315 315 316 316 316 315 313 312 311 311 310 309 308 306 305 304 305 305 305 305 305 303 302 300 299 298 297 296 294 291 289
265 264 262 262 262 262 262 262 261 260 259 258 256 254 252 250 252 256 256 253 248 247 252 256 250 249 253 246 226 209 206 202 196 197 198 193 200 219 237 254 250 253 316 347 2 3 328 312 320 323 325 324 322 321 324 325 324 322 320 318 316 314 313 310 309 308 305 304 303 304 304 304 305 305 305 304 303 301 300 300 300 298 294 291 289
255 256 257 257 259 260 260 259 257 255 253 252 249 249 249 249 248 246 244 244 243 244 245 242 231 224 225 219 196 182 185 189 185 180 177 170 180 191 179 172 172 43 6 11 18 7 342 338 332 324 322 323 324 324 325 325 324 324 324 323 321 320 318 314 311 308 305 304 304 304 303 304 304 305 306 305 304 303 303 303 302 299 296 292 290
248 246 246 248 251 252 251 252 251 248 247 246 245 245 247 246 240 235 232 228 219 210 204 201 196 187 179 178 179 177 177 177 172 167 163 166 167 156 144 139 113 48 21 15 12 355 338 333 325 321 322 323 324 325 325 325 327 328 327 325 324 323 320 317 314 310 307 306 304 302 301 302 303 304 306 306 305 304 304 303 302 300 297 293 291
249 245 240 239 243 245 245 247 250 248 245 242 240 238 238 237 233 231 226 207 183 170 167 169 172 172 169 171 172 168 162 156 152 151 157 161 152 134 117 101 65 33 13 4 359 346 334 328 322 320 321 322 326 329 331 331 331 330 327 325 325 324 322 319 316 313 310 309 306 304 304 304 304 305 306 306 306 304 303 302 301 299 297 294 292
250 245 240 237 237 241 244 245 246 244 240 235 232 232 231 228 226 223 215 197 179 166 161 163 166 168 167 163 158 152 147 139 134 135 139 144 141 127 102 58 27 12 0 354 348 339 331 325 319 318 321 326 332 335 335 334 333 331 329 328 327 326 325 324 321 319 317 315 312 310 309 308 307 307 306 306 306 305 302 302 301 299 297 295 292
247 241 239 236 232 232 237 241 239 237 234 228 225 226 222 214 206 197 191 185 174 165 161 160 159 157 157 156 152 147 142 135 129 127 123 121 119 110 93 65 36 18 359 343 333 326 320 317 318 322 326 331 335 337 338 339 337 335 334 331 328 326 327 327 326 325 323 321 318 316 314 312 309 309 308 307 306 304 303 302 301 298 297 295 292
245 234 230 228 225 226 230 233 230 228 227 221 216 212 203 193 187 181 176 171 166 162 160 159 156 153 152 150 146 143 139 132 128 127 124 117 107 97 87 74 52 12 335 321 316 313 313 317 324 328 328 330 338 343 343 341 338 336 337 335 332 331 330 329 330 330 328 325 323 320 318 315 313 312 311 309 307 305 304 303 301 299 298 296 293
235 223 217 216 217 218 220 223 219 215 214 209 201 193 185 178 173 167 162 159 158 158 158 158 156 154 150 146 142 139 131 122 124 141 143 127 106 94 89 57 344 316 312 315 317 317 322 329 333 331 331 340 351 350 344 340 339 339 340 339 337 336 334 333 333 333 332 330 328 325 322 319 317 316 314 311 308 307 305 303 302 300 299 297 295
209 206 207 209 209 208 208 207 201 198 196 189 176 169 164 160 156 154 152 152 153 153 153 151 150 149 149 149 147 136 114 99 106 147 168 162 150 156 196 243 288 300 311 322 325 327 335 339 337 342 358 7 3 355 349 347 347 346 345 344 341 339 338 338 338 338 337 335 332 329 325 323 322 320 317 312 308 306 305 303 301 299 298 297 296
174 182 191 196 194 192 189 182 174 173 172 166 159 155 153 149 147 148 148 147 146 146 146 148 151 152 153 153 151 137 116 107 114 142 175 179 181 194 224 255 285 304 319 328 330 337 347 345 345 6 22 17 7 2 0 358 356 353 352 350 347 345 343 342 342 341 340 338 335 332 329 328 326 323 318 313 310 307 304 302 300 298 296 296 297
149 157 164 169 171 168 162 156 154 155 155 151 149 148 146 144 143 144 144 143 144 145 146 149 154 158 156 151 144 136 132 139 152 175 191 194 205 227 249 273 298 314 323 327 332 345 355 353 6 26 29 20 13 11 10 6 2 359 357 356 353 350 347 347 346 344 342 341 339 335 333 332 330 325 321 319 316 312 307 304 303 300 295 295 297
124 129 132 136 141 142 141 140 141 140 138 137 136 136 138 139 139 139 139 140 144 147 148 147 150 158 165 165 162 166 170 173 185 206 214 225 242 251 265 297 316 320 322 328 340 358 2 7 28 37 31 23 19 16 13 10 5 1 359 358 355 352 350 349 348 347 345 343 342 339 336 335 333 329 326 324 321 317 312 309 307 302 296 294 296
104 110 115 118 122 124 126 128 127 125 125 126 128 130 134 137 137 138 141 143 146 150 148 144 145 156 170 174 176 180 186 195 211 227 252 290 297 289 309 332 327 322 325 334 351 6 9 21 40 42 32 25 21 17 13 10 6 2 359 358 356 354 353 351 349 348 347 347 347 345 342 340 338 336 334 331 327 321 316 313 311 306 300 295 293
94 98 103 107 110 113 115 117 119 120 123 124 124 125 129 132 133 139 149 153 152 151 147 142 142 151 162 170 176 184 194 203 212 228 263 289 296 312 347 339 324 324 331 339 358 14 18 33 46 44 34 26 22 18 13 10 6 3 0 358 357 356 355 353 352 351 351 352 352 350 347 345 343 342 342 340 335 328 322 319 318 313 306 300 294
95 98 102 106 109 111 114 118 122 124 126 126 125 126 128 128 126 130 140 148 151 151 150 149 151 157 165 173 183 194 202 207 214 233 258 264 252 330 357 341 331 335 337 340 1 21 26 38 47 43 33 25 21 17 12 8 6 4 2 1 0 360 359 357 356 354 355 357 356 353 350 349 347 348 349 348 342 336 330 329 326 318 308 303 296
105 106 107 109 111 113 117 123 128 129 130 131 134 135 135 133 130 131 136 143 149 152 155 161 175 185 182 180 188 199 207 212 221 231 229 198 158 56 3 349 346 350 348 347 6 24 32 42 45 41 32 24 20 15 10 7 6 5 4 4 5 5 5 3 1 359 359 359 357 355 356 356 355 356 357 355 352 349 344 339 334 326 318 312 303
107 107 107 108 109 111 115 120 125 129 131 133 135 137 139 140 139 140 142 147 154 161 169 182 200 208 197 178 178 192 203 208 211 208 185 147 105 40 10 357 358 1 356 352 4 21 34 42 43 38 28 21 18 13 8 5 6 7 7 7 9 10 10 8 6 5 4 1 358 358 0 1 1 3 4 3 3 5 2 356 355 359 2 3 352
98 98 99 102 105 109 112 113 116 125 134 141 146 150 152 154 155 157 161 169 179 189 192 190 191 201 201 175 155 166 186 195 191 171 146 122 78 30 7 358 1 5 360 358 3 6 24 39 40 33 25 19 15 9 6 5 7 8 9 9 11 12 12 11 10 10 8 6 1 360 2 5 6 7 9 10 11 14 14 16 25 32 34 39 46
96 94 96 103 112 118 121 122 124 130 140 151 157 159 160 162 165 169 175 183 190 197 198 193 191 198 201 181 146 141 161 174 161 138 130 118 62 21 8 3 7 11 13 15 10 358 20 40 37 27 20 18 12 6 4 6 7 9 10 11 12 13 13 14 15 14 12 11 7 3 4 8 11 12 14 16 17 18 20 24 32 35 36 41 49
101 102 107 116 123 126 130 135 139 142 148 156 161 163 166 170 175 180 184 188 192 198 207 219 232 233 199 166 143 135 144 152 144 133 134 125 48 19 12 10 12 18 25 27 17 10 32 44 33 20 18 18 11 4 5 7 7 9 11 12 12 13 14 15 16 17 16 15 13 10 10 13 15 17 20 21 21 22 23 26 30 34 34 36 44
100 111 121 128 131 133 138 143 145 148 155 163 169 176 183 188 191 193 196 200 205 211 220 235 250 259 223 150 142 139 142 146 146 144 147 142 43 19 18 18 19 23 29 32 26 21 29 33 24 19 21 18 9 3 6 8 7 8 11 13 14 16 16 15 16 17 19 19 18 17 18 19 20 21 23 23 23 24 25 26 30 33 33 34 41
Height
1506 1508 1508 1509 1515 1519 1520 1520 1519 1519 1519 1520 1522 1523 1523 1523 1524 1524 1525 1527 1528 1529 1531 1532 1533 1534 1535 1537 1538 1539 1540 1541 1542 1542 1543 1543 1543 1544 1544 1544 1544 1544 1544 1544 1544 1544 1543 1543 1543 1543 1542 1542 1542 1541 1541 1541 1541 1540 1540 1540 1540 1540 1540 1540 1539 1539 1539 1538 1538 1537 1537 1536 1535 1535 1534 1533 1533 1532 1532 1531 1530 1530 1530 1529 1529
1502 1505 1506 1508 1511 1515 1517 1518 1518 1518 1518 1519 1520 1521 1522 1522 1522 1523 1523 1525 1526 1527 1529 1530 1531 1532 1533 1534 1536 1537 1539 1540 1541 1541 1542 1543 1543 1543 1543 1544 1543 1544 1544 1544 1544 1544 1543 1543 1543 1543 1543 1542 1542 1542 1541 1541 1540 1540 1540 1540 1540 1540 1540 1539 1539 1538 1537 1537 1537 1536 1535 1534 1534 1533 1533 1532 1531 1530 1529 1529 1529 1528 1528 1528 1527
1502 1504 1506 1508 1510 1512 1514 1515 1515 1516 1516 1517 1518 1519 1520 1521 1521 1522 1522 1522 1523 1524 1526 1527 1529 1530 1531 1532 1533 1535 1537 1538 1539 1540 1541 1541 1542 1542 1542 1543 1543 1543 1543 1543 1543 1543 1543 1543 1543 1543 1543 1542 1542 1541 1541 1541 1540 1540 1540 1540 1539 1539 1539 1538 1538 1537 1536 1535 1535 1534 1533 1533 1532 1531 1531 1530 1529 1528 1527 1527 1527 1526 1526 1526 1526
1503 1505 1506 1508 1508 1510 1511 1512 1513 1514 1515 1517 1517 1518 1519 1519 1520 1521 1521 1521 1521 1522 1523 1524 1526 1527 1528 1530 1531 1533 1534 1536 1537 1538 1538 1539 1539 1540 1540 1541 1541 1541 1541 1541 1541 1542 1542 1542 1542 1542 1542 1542 1541 1541 1540 1540 1540 1539 1539 1539 1539 1538 1538 1537 1537 1536 1535 1534 1534 1533 1532 1531 1530 1530 1529 1528 1527 1526 1526 1525 1525 1524 1524 1524 1524
1503 1505 1506 1507 1508 1508 1509 1511 1513 1514 1515 1515 1516 1517 1517 1518 1519 1520 1520 1521 1521 1522 1522 1523 1524 1525 1527 1528 1530 1531 1532 1533 1534 1534 1534 1534 1535 1535 1536 1538 1539 1539 1539 1539 1539 1540 1540 1541 1541 1541 1541 1541 1541 1540 1540 1539 1539 1538 1538 1538 1537 1537 1536 1536 1535 1535 1534 1533 1532 1531 1530 1529 1528 1528 1527 1525 1524 1524 1523 1523 1523 1522 1521 1521 1521
1503 1505 1507 1508 1509 1509 1508 1510 1512 1513 1514 1514 1514 1515 1516 1516 1518 1518 1519 1520 1521 1522 1522 1523 1523 1524 1526 1527 1528 1530 1530 1530 1530 1530 1530 1531 1531 1532 1533 1534 1536 1536 1537 1538 1538 1538 1538 1539 1539 1539 1539 1539 1539 1539 1539 1539 1538 1537 1537 1536 1536 1535 1534 1534 1533 1533 1532 1531 1530 1529 1528 1527 1526 1525 1525 1524 1522 1521 1520 1520 1519 1519 1519 1518 1518
1503 1505 1507 1508 1509 1509 1509 1510 1511 1512 1513 1513 1513 1513 1514 1515 1516 1517 1518 1519 1520 1520 1521 1521 1522 1523 1524 1525 1526 1528 1528 1528 1528 1528 1528 1528 1529 1529 1529 1531 1532 1534 1534 1535 1536 1536 1536 1537 1538 1538 1538 1538 1538 1538 1538 1537 1537 1536 1535 1534 1534 1533 1533 1532 1531 1531 1530 1529 1528 1527 1526 1525 1524 1523 1522 1522 1521 1520 1518 1516 1515 1515 1516 1515 1514
1503 1505 1506 1507 1508 1509 1509 1510 1511 1511 1512 1512 1511 1512 1512 1513 1514 1515 1516 1517 1518 1518 1519 1519 1520 1521 1522 1523 1524 1525 1526 1526 1526 1526 1526 1526 1526 1527 1527 1527 1529 1530 1531 1532 1533 1533 1534 1534 1535 1536 1537 1537 1537 1536 1536 1536 1535 1535 1534 1533 1532 1531 1531 1530 1529 1528 1527 1526 1525 1524 1523 1523 1522 1521 1520 1519 1518 1517 1516 1514 1512 1512 1512 1511 1511
1504 1505 1506 1507 1507 1508 1508 1509 1510 1510 1510 1510 1510 1510 1511 1512 1513 1514 1514 1515 1516 1516 1516 1517 1517 1518 1519 1520 1521 1522 1523 1524 1524 1525 1525 1525 1524 1524 1525 1525 1526 1527 1528 1529 1530 1530 1531 1532 1533 1534 1535 1535 1535 1535 1534 1534 1533 1533 1532 1531 1530 1529 1529 1528 1527 1526 1525 1524 1523 1522 1521 1520 1519 1518 1517 1517 1516 1514 1513 1512 1511 1509 1508 1507 1508
1504 1505 1505 1506 1506 1507 1508 1508 1509 1509 1509 1510 1510 1510 1511 1512 1512 1513 1514 1514 1514 1514 1515 1515 1515 1516 1517 1517 1518 1519 1520 1521 1522 1522 1523 1523 1523 1523 1523 1523 1524 1524 1526 1526 1527 1527 1528 1529 1529 1531 1532 1533 1533 1532 1532 1531 1531 1531 1530 1529 1529 1528 1527 1526 1525 1524 1522 1521 1520 1519 1517 1517 1517 1516 1514 1514 1513 1511 1510 1509 1507 1506 1505 1503 1503
1504 1504 1505 1505 1506 1506 1507 1507 1508 1508 1509 1509 1510 1510 1511 1511 1512 1512 1513 1513 1513 1513 1513 1514 1514 1514 1514 1515 1515 1516 1517 1518 1519 1519 1520 1521 1521 1521 1521 1521 1521 1521 1522 1523 1524 1525 1525 1526 1526 1527 1529 1530 1530 1530 1529 1529 1529 1528 1527 1527 1526 1526 1524 1523 1522 1521 1519 1518 1517 1516 1515 1513 1513 1513 1512 1511 1510 1508 1507 1506 1504 1503 1502 1500 1498
1504 1504 1504 1505 1505 1505 1506 1506 1507 1508 1508 1509 1509 1509 1510 1510 1511 1511 1511 1512 1512 1512 1512 1513 1512 1513 1513 1513 1513 1514 1515 1516 1516 1517 1517 1518 1518 1518 1518 1518 1518 1519 1520 1520 1521 1522 1523 1524 1524 1525 1526 1527 1527 1527 1527 1527 1527 1526 1525 1524 1523 1523 1522 1520 1519 1518 1516 1515 1514 1513 1512 1511 1509 1509 1509 1507 1506 1505 1504 1503 1502 1500 1499 1497 1495
1504 1504 1504 1505 1505 1505 1505 1505 1506 1507 1507 1508 1508 1509 1509 1510 1510 1510 1510 1510 1511 1511 1511 1511 1511 1511 1511 1511 1512 1512 1513 1513 1514 1514 1515 1515 1516 1515 1515 1515 1515 1516 1517 1518 1519 1520 1521 1522 1522 1522 1523 1524 1524 1524 1524 1524 1524 1523 1522 1521 1521 1520 1519 1518 1517 1515 1514 1512 1511 1510 1510 1508 1506 1506 1506 1504 1502 1501 1500 1499 1498 1497 1496 1495 1493
1503 1503 1503 1504 1504 1504 1504 1505 1505 1505 1506 1507 1507 1508 1508 1509 1509 1509 1509 1509 1509 1509 1510 1510 1510 1510 1510 1510 1510 1510 1510 1511 1511 1512 1512 1512 1512 1512 1512 1512 1512 1513 1514 1515 1516 1518 1518 1519 1519 1520 1520 1521 1521 1522 1522 1521 1521 1520 1519 1518 1518 1518 1517 1516 1515 1514 1512 1511 1509 1508 1507 1506 1504 1503 1503 1502 1500 1498 1497 1495 1495 1493 1492 1491 1490
1503 1503 1503 1503 1503 1504 1504 1504 1504 1504 1505 1506 1506 1506 1507 1507 1508 1508 1508 1508 1508 1508 1508 1508 1508 1509 1509 1508 1508 1508 1508 1508 1508 1509 1509 1509 1509 1509 1510 1510 1510 1511 1512 1513 1514 1515 1516 1517 1517 1517 1518 1519 1519 1519 1519 1519 1518 1517 1516 1516 1515 1515 1514 1513 1512 1511 1510 1508 1506 1505 1504 1503 1502 1500 1499 1499 1497 1496 1495 1493 1491 1490 1488 1486 1485
1503 1503 1503 1503 1503 1503 1503 1503 1503 1503 1504 1504 1504 1505 1506 1506 1506 1506 1506 1507 1507 1506 1506 1506 1506 1507 1507 1507 1506 1506 1506 1506 1506 1506 1507 1507 1507 1507 1508 1508 1509 1509 1510 1511 1512 1512 1513 1514 1515 1515 1516 1517 1517 1517 1517 1516 1515 1515 1514 1513 1513 1512 1511 1510 1509 1507 1506 1504 1503 1502 1501 1500 1499 1497 1496 1495 1494 1493 1491 1489 1488 1487 1485 1482 1480
1502 1502 1502 1502 1502 1502 1503 1503 1503 1503 1503 1503 1503 1503 1504 1504 1504 1505 1505 1505 1505 1504 1504 1504 1504 1504 1504 1504 1504 1504 1504 1504 1504 1505 1505 1505 1505 1505 1506 1506 1507 1507 1508 1509 1510 1511 1511 1512 1512 1513 1514 1515 1514 1514 1514 1513 1513 1512 1512 1511 1510 1509 1508 1507 1505 1504 1502 1501 1500 1498 1497 1496 1495 1494 1493 1492 1491 1490 1488 1485 1484 1485 1482 1479 1476
1501 1501 1501 1501 1501 1501 1501 1501 1501 1502 1502 1502 1502 1502 1502 1502 1502 1502 1503 1502 1502 1502 1502 1502 1502 1502 1502 1502 1502 1502 1502 1502 1502 1503 1503 1503 1503 1504 1504 1505 1505 1505 1506 1507 1508 1509 1509 1509 1510 1511 1511 1511 1511 1511 1511 1511 1510 1509 1508 1507 1506 1505 1504 1503 1501 1500 1499 1497 1496 1495 1493 1492 1491 1490 1489 1488 1487 1487 1484 1481 1480 1480 1478 1475 1474
1499 1499 1499 1499 1499 1500 1500 1500 1500 1500 1500 1500 1500 1500 1500 1500 1500 1500 1500 1500 1500 1500 1500 1500 1499 1499 1499 1500 1500 1500 1500 1500 1500 1501 1501 1502 1502 1502 1503 1503 1503 1504 1504 1505 1507 1507 1507 1507 1508 1508 1508 1509 1509 1509 1509 1508 1507 1506 1505 1504 1502 1501 1500 1499 1497 1495 1493 1492 1491 1489 1488 1487 1486 1484 1484 1483 1482 1482 1480 1477 1477 1476 1474 1472 1472
1497 1497 1497 1497 1497 1498 1498 1498 1498 1498 1498 1498 1498 1498 1498 1498 1498 1498 1498 1498 1498 1497 1497 1497 1497 1497 1497 1497 1497 1498 1498 1498 1498 1498 1499 1500 1500 1501 1501 1501 1502 1502 1502 1503 1504 1504 1504 1505 1505 1505 1506 1506 1507 1506 1506 1505 1504 1503 1502 1501 1499 1497 1496 1494 1492 1490 1488 1487 1485 1484 1482 1481 1480 1479 1478 1478 1477 1476 1475 1474 1472 1471 1470 1468 1469
1495 1496 1495 1495 1495 1495 1495 1496 1496 1496 1496 1496 1496 1496 1496 1496 1496 1496 1496 1496 1495 1494 1494 1494 1494 1494 1495 1495 1495 1495 1495 1495 1496 1496 1497 1497 1498 1499 1500 1500 1500 1500 1500 1501 1501 1501 1502 1502 1502 1503 1504 1504 1504 1503 1502 1502 1501 1500 1499 1497 1495 1493 1491 1490 1488 1486 1484 1482 1481 1479 1478 1477 1476 1475 1474 1473 1472 1471 1471 1470 1468 1467 1466 1465 1465
1493 1493 1493 1493 1493 1493 1493 1493 1493 1493 1493 1493 1493 1494 1494 1494 1494 1493 1493 1493 1492 1492 1491 1491 1491 1492 1492 1493 1493 1493 1493 1494 1494 1494 1495 1495 1496 1497 1498 1498 1498 1499 1499 1499 1499 1499 1499 1500 1500 1501 1501 1501 1501 1500 1499 1498 1497 1496 1495 1493 1491 1490 1488 1486 1484 1482 1481 1479 1477 1476 1475 1473 1472 1471 1470 1469 1468 1468 1467 1466 1465 1464 1463 1463 1462
1490 1490 1490 1490 1490 1490 1491 1491 1491 1491 1491 1491 1491 1491 1491 1491 1491 1491 1491 1490 1490 1489 1489 1489 1489 1490 1490 1491 1491 1491 1491 1492 1492 1492 1493 1493 1494 1495 1496 1496 1497 1497 1497 1497 1498 1498 1498 1498 1498 1498 1498 1498 1498 1497 1496 1495 1494 1492 1491 1489 1487 1486 1484 1482 1481 1479 1478 1476 1475 1473 1472 1471 1469 1468 1467 1466 1465 1464 1463 1462 1462 1461 1460 1459 1459
1486 1486 1487 1487 1487 1488 1488 1488 1488 1488 1488 1488 1488 1488 1488 1488 1488 1488 1488 1488 1487 1487 1486 1487 1487 1487 1488 1489 1489 1489 1490 1490 1490 1491 1491 1491 1492 1494 1494 1495 1495 1495 1495 1496 1496 1496 1496 1496 1495 1495 1495 1495 1495 1494 1493 1492 1491 1489 1487 1486 1484 1482 1481 1479 1478 1476 1475 1473 1472 1470 1469 1468 1467 1466 1464 1463 1462 1461 1460 1459 1458 1458 1457 1456 1455
1483 1483 1484 1484 1484 1485 1485 1485 1485 1485 1485 1485 1485 1484 1484 1484 1484 1485 1486 1486 1485 1485 1484 1485 1485 1486 1486 1487 1487 1488 1488 1488 1488 1489 1489 1490 1490 1491 1492 1492 1493 1493 1494 1494 1495 1495 1494 1494 1494 1493 1493 1493 1492 1491 1490 1489 1488 1486 1484 1483 1481 1480 1478 1477 1475 1474 1472 1471 1469 1468 1466 1466 1465 1463 1462 1461 1459 1458 1457 1456 1455 1454 1453 1452 1451
1479 1480 1480 1480 1481 1481 1481 1481 1482 1482 1482 1482 1482 1481 1481 1481 1481 1482 1482 1483 1483 1482 1482 1483 1483 1484 1484 1485 1485 1485 1486 1486 1486 1487 1488 1488 1488 1489 1490 1491 1491 1492 1492 1493 1493 1493 1493 1492 1492 1492 1491 1490 1489 1488 1487 1486 1484 1483 1482 1480 1479 1477 1476 1474 1473 1471 1470 1468 1466 1465 1464 1463 1462 1460 1459 1458 1456 1455 1454 1452 1451 1449 1449 1447 1446
1475 1476 1476 1477 1477 1478 1478 1478 1479 1479 1479 1479 1478 1478 1478 1478 1479 1479 1480 1480 1480 1480 1480 1480 1480 1481 1482 1482 1483 1483 1483 1484 1484 1485 1486 1486 1487 1487 1488 1489 1490 1490 1490 1491 1491 1491 1491 1490 1490 1489 1488 1487 1486 1485 1484 1483 1482 1481 1479 1478 1477 1475 1474 1472 1470 1469 1467 1465 1463 1462 1460 1459 1458 1457 1455 1454 1453 1452 1451 1449 1447 1445 1445 1443 1441
1471 1472 1473 1473 1474 1474 1475 1475 1475 1476 1476 1476 1475 1475 1475 1476 1476 1477 1477 1478 1478 1478 1478 1477 1478 1479 1480 1480 1480 1481 1481 1482 1483 1483 1484 1485 1485 1486 1487 1488 1489 1489 1489 1489 1489 1489 1489 1488 1488 1487 1486 1485 1484 1483 1482 1481 1480 1478 1477 1475 1474 1472 1471 1469 1467 1465 1464 1462 1460 1458 1457 1455 1454 1452 1451 1450 1448 1447 1446 1445 1443 1441 1441 1440 1437
1467 1468 1468 1469 1469 1470 1471 1472 1472 1472 1472 1472 1473 1473 1473 1473 1474 1474 1474 1475 1475 1475 1475 1476 1476 1477 1477 1478 1478 1479 1480 1480 1481 1482 1483 1484 1485 1486 1486 1487 1487 1487 1488 1487 1487 1487 1487 1486 1485 1485 1484 1484 1483 1481 1480 1478 1477 1475 1474 1472 1470 1469 1467 1465 1464 1462 1460 1459 1457 1455 1453 1451 1450 1448 1447 1445 1444 1443 1442 1441 1439 1437 1436 1435 1433
1463 1463 1464 1464 1465 1466 1467 1467 1468 1468 1468 1468 1469 1470 1470 1470 1471 1471 1472 1472 1473 1473 1473 1474 1474 1475 1476 1476 1477 1478 1479 1480 1481 1482 1483 1483 1484 1485 1485 1486 1486 1486 1487 1486 1486 1485 1485 1484 1484 1483 1482 1482 1480 1479 1477 1475 1473 1472 1470 1469 1467 1466 1464 1462 1461 1459 1457 1455 1453 1451 1449 1448 1446 1444 1443 1441 1439 1438 1438 1436 1435 1434 1432 1431 1429
1458 1459 1459 1460 1461 1461 1462 1463 1463 1464 1464 1464 1465 1466 1467 1467 1468 1469 1469 1470 1470 1471 1471 1471 1472 1473 1474 1475 1476 1478 1479 1480 1481 1482 1482 1483 1484 1484 1485 1485 1486 1486 1486 1485 1484 1484 1483 1483 1482 1481 1480 1479 1478 1476 1474 1472 1471 1469 1467 1466 1464 1462 1461 1459 1457 1455 1453 1451 1449 1447 1445 1444 1442 1440 1439 1437 1435 1434 1433 1432 1431 1429 1428 1427 1425
1453 1454 1455 1456 1457 1457 1458 1458 1459 1459 1460 1461 1462 1463 1463 1464 1465 1466 1467 1468 1468 1469 1469 1469 1470 1472 1474 1474 1475 1477 1479 1480 1481 1482 1483 1483 1484 1484 1485 1485 1485 1485 1485 1484 1483 1483 1482 1481 1480 1479 1478 1477 1476 1474 1472 1470 1468 1467 1465 1463 1461 1459 1457 1455 1453 1451 1449 1447 1445 1443 1441 1440 1438 1436 1434 1433 1431 1429 1428 1427 1426 1425 1424 1422 1421
1447 1448 1449 1451 1452 1453 1453 1454 1454 1455 1456 1457 1458 1459 1460 1461 1462 1463 1464 1465 1467 1468 1468 1469 1470 1472 1473 1475 1476 1477 1479 1480 1481 1482 1483 1483 1483 1484 1484 1484 1484 1484 1483 1483 1482 1481 1480 1480 1479 1478 1477 1475 1474 1472 1470 1468 1466 1465 1463 1460 1458 1456 1454 1452 1450 1448 1445 1443 1441 1439 1438 1436 1434 1432 1430 1429 1427 1426 1424 1423 1422 1421 1420 1418 1417
1439 1441 1443 1445 1447 1448 1449 1450 1450 1451 1452 1454 1455 1456 1457 1458 1459 1460 1461 1463 1465 1467 1468 1469 1471 1472 1473 1475 1476 1478 1479 1480 1481 1482 1482 1483 1483 1483 1483 1483 1483 1483 1482 1482 1481 1480 1479 1478 1478 1476 1475 1474 1472 1470 1468 1466 1464 1462 1460 1458 1456 1453 1451 1449 1447 1444 1442 1440 1438 1436 1434 1432 1431 1429 1427 1425 1424 1422 1420 1419 1418 1417 1416 1414 1413
1432 1433 1436 1439 1441 1444 1445 1445 1446 1447 1449 1450 1452 1453 1454 1456 1457 1458 1459 1460 1462 1464 1466 1469 1471 1473 1474 1475 1477 1478 1480 1481 1481 1482 1482 1482 1483 1483 1483 1482 1482 1482 1481 1481 1480 1479 1478 1477 1476 1475 1474 1472 1470 1468 1466 1465 1463 1460 1458 1456 1453 1451 1448 1446 1443 1441 1439 1437 1434 1432 1431 1429 1427 1425 1423 1421 1420 1418 1416 1415 1414 1413 1412 1410 1409
1424 1427 1429 1433 1436 1439 1441 1441 1443 1444 1446 1447 1449 1450 1452 1453 1454 1455 1457 1459 1461 1463 1466 1469 1471 1473 1474 1475 1477 1478 1480 1481 1481 1482 1482 1482 1483 1483 1483 1482 1482 1481 1480 1480 1479 1478 1477 1476 1475 1474 1472 1470 1469 1467 1465 1464 1461 1459 1456 1453 1450 1448 1445 1443 1440 1438 1436 1433 1431 1429 1427 1425 1423 1421 1419 1417 1416 1414 1413 1411 1410 1409 1408 1407 1405
1418 1421 1424 1428 1431 1434 1437 1439 1441 1442 1443 1445 1446 1448 1449 1451 1452 1454 1456 1459 1461 1464 1467 1469 1471 1473 1474 1476 1477 1479 1480 1480 1481 1482 1482 1482 1482 1482 1482 1482 1481 1480 1480 1479 1478 1478 1477 1475 1474 1472 1471 1469 1468 1466 1464 1462 1459 1456 1454 1451 1448 1446 1443 1440 1438 1435 1433 1430 1428 1426 1424 1421 1419 1418 1416 1414 1412 1410 1409 1407 1406 1404 1403 1403 1402
1413 1416 1420 1424 1427 1430 1433 1436 1438 1440 1442 1444 1445 1446 1448 1451 1453 1455 1458 1460 1463 1465 1468 1470 1472 1474 1475 1476 1478 1479 1480 1480 1481 1481 1481 1482 1482 1482 1481 1481 1480 1480 1479 1478 1477 1476 1475 1474 1473 1471 1470 1468 1466 1465 1463 1460 1457 1454 1451 1448 1446 1443 1441 1438 1435 1433 1430 1428 1425 1423 1420 1418 1416 1414 1412 1410 1408 1406 1405 1404 1402 1401 1399 1399 1398
1411 1414 1418 1421 1424 1427 1430 1433 1436 1439 1441 1443 1445 1447 1449 1452 1456 1458 1460 1462 1465 1467 1469 1471 1473 1474 1475 1477 1478 1479 1479 1480 1480 1480 1480 1481 1481 1481 1480 1480 1479 1479 1478 1477 1476 1475 1474 1473 1471 1470 1468 1467 1465 1464 1461 1458 1455 1452 1449 1446 1443 1441 1438 1435 1433 1430 1427 1425 1422 1420 1417 1415 1413 1411 1409 1407 1405 1403 1402 1400 1399 1397 1396 1395 1394
1411 1414 1417 1421 1424 1426 1429 1432 1435 1438 1441 1443 1447 1450 1452 1455 1458 1461 1463 1464 1466 1468 1470 1472 1473 1474 1476 1477 1478 1478 1479 1479 1479 1479 1479 1480 1480 1480 1479 1479 1478 1478 1477 1476 1475 1474 1473 1472 1470 1468 1467 1466 1464 1462 1460 1457 1453 1451 1448 1445 1442 1439 1436 1433 1431 1428 1425 1422 1419 1417 1414 1412 1410 1408 1406 1404 1403 1401 1399 1397 1396 1395 1393 1392 1391
1413 1415 1418 1421 1424 1427 1430 1433 1436 1439 1442 1446 1449 1453 1455 1458 1460 1463 1464 1466 1467 1469 1470 1472 1473 1475 1476 1476 1477 1478 1478 1478 1478 1479 1479 1479 1479 1479 1478 1478 1477 1476 1475 1475 1474 1473 1472 1471 1469 1468 1466 1465 1463 1461 1458 1455 1452 1449 1446 1444 1441 1437 1434 1432 1429 1426 1423 1420 1417 1414 1412 1410 1408 1405 1403 1402 1400 1398 1396 1394 1393 1392 1391 1390 1389
1417 1419 1421 1424 1427 1429 1433 1437 1440 1443 1446 1450 1453 1456 1458 1460 1462 1464 1465 1467 1468 1470 1471 1472 1473 1474 1475 1476 1476 1477 1477 1477 1477 1478 1478 1478 1478 1477 1477 1477 1476 1475 1474 1474 1473 1472 1471 1470 1468 1467 1466 1464 1462 1459 1457 1454 1451 1448 1445 1442 1439 1436 1433 1430 1427 1424 1421 1418 1415 1413 1410 1408 1406 1403 1401 1399 1397 1395 1394 1392 1391 1390 1389 1388 1387
1425 1426 1428 1431 1433 1436 1439 1442 1445 1447 1450 1453 1456 1458 1460 1462 1463 1465 1466 1467 1469 1470 1471 1472 1473 1474 1474 1475 1476 1476 1476 1476 1476 1476 1476 1477 1477 1476 1476 1476 1475 1474 1474 1473 1472 1471 1471 1469 1468 1466 1465 1463 1461 1459 1456 1454 1451 1448 1445 1442 1439 1435 1432 1428 1425 1422 1419 1417 1414 1411 1409 1406 1404 1402 1399 1397 1395 1394 1392 1390 1389 1388 1387 1386 1385
1434 1435 1437 1439 1441 1443 1446 1448 1450 1452 1454 1457 1458 1460 1461 1463 1464 1466 1467 1468 1469 1470 1472 1472 1473 1473 1474 1474 1475 1475 1475 1475 1475 1475 1475 1476 1476 1476 1476 1475 1474 1473 1473 1472 1472 1471 1470 1469 1467 1465 1464 1462 1460 1458 1456 1454 1451 1448 1445 1441 1438 1435 1431 1428 1424 1421 1418 1415 1412 1410 1407 1405 1402 1400 1398 1396 1394 1392 1390 1389 1387 1386 1385 1384 1384
1442 1443 1444 1445 1447 1449 1450 1452 1454 1455 1457 1459 1460 1462 1463 1464 1465 1466 1467 1469 1470 1471 1471 1472 1472 1473 1473 1474 1474 1474 1474 1474 1474 1474 1475 1475 1475 1475 1475 1474 1473 1473 1472 1472 1471 1470 1469 1468 1466 1464 1463 1462 1460 1458 1456 1453 1451 1448 1445 1441 1438 1435 1431 1428 1424 1421 1418 1415 1412 1409 1407 1404 1401 1399 1397 1394 1392 1391 1389 1388 1386 1385 1384 1383 1382
1449 1449 1450 1451 1452 1453 1454 1456 1457 1458 1460 1461 1462 1464 1465 1466 1467 1468 1469 1470 1470 1471 1471 1472 1472 1472 1472 1473 1473 1473 1473 1473 1473 1473 1473 1474 1474 1474 1474 1473 1472 1472 1471 1471 1470 1470 1469 1467 1466 1464 1463 1461 1459 1457 1455 1453 1451 1448 1445 1442 1438 1435 1431 1428 1424 1421 1418 1415 1412 1409 1406 1404 1401 1398 1396 1394 1392 1390 1388 1387 1385 1384 1383 1382 1381
1453 1454 1455 1456 1456 1457 1458 1459 1460 1461 1462 1463 1464 1465 1467 1468 1468 1469 1470 1470 1470 1471 1471 1471 1471 1471 1471 1472 1472 1472 1471 1471 1471 1472 1472 1473 1473 1473 1472 1472 1471 1471 1470 1470 1469 1469 1468 1467 1465 1464 1462 1461 1459 1457 1455 1453 1450 1447 1444 1441 1438 1435 1432 1428 1425 1421 1418 1415 1412 1410 1407 1404 1401 1398 1396 1394 1392 1390 1388 1386 1385 1383 1382 1381 1381
1457 1457 1458 1458 1459 1460 1460 1461 1462 1463 1463 1464 1465 1466 1467 1468 1468 1468 1469 1469 1469 1469 1469 1470 1470 1470 1470 1471 1471 1471 1470 1470 1471 1471 1472 1472 1472 1472 1472 1471 1471 1470 1469 1469 1469 1468 1467 1466 1465 1463 1462 1460 1458 1457 1455 1453 1450 1447 1444 1441 1438 1436 1433 1429 1426 1422 1418 1415 1413 1410 1407 1404 1401 1399 1396 1394 1392 1390 1388 1386 1385 1384 1383 1382 1381
1459 1459 1459 1460 1460 1461 1461 1462 1463 1464 1464 1465 1466 1466 1467 1467 1468 1468 1468 1468 1468 1468 1469 1469 1469 1469 1470 1470 1470 1470 1470 1470 1470 1471 1471 1472 1472 1472 1471 1471 1470 1470 1469 1469 1468 1468 1467 1466 1465 1463 1462 1460 1458 1457 1455 1453 1450 1447 1444 1441 1438 1436 1434 1430 1427 1423 1419 1416 1413 1410 1408 1405 1402 1400 1397 1395 1393 1391 1389 1388 1386 1385 1384 1383 1383
1461 1461 1461 1462 1462 1462 1463 1463 1464 1464 1465 1466 1466 1467 1467 1467 1468 1468 1468 1468 1468 1468 1468 1469 1469 1469 1469 1469 1469 1469 1469 1469 1470 1470 1471 1471 1472 1471 1471 1470 1470 1469 1469 1468 1468 1467 1466 1465 1464 1463 1461 1460 1459 1457 1455 1453 1450 1447 1444 1441 1439 1436 1434 1431 1428 1424 1421 1417 1414 1411 1408 1406 1403 1401 1398 1396 1394 1392 1391 1389 1388 1387 1386 1385 1384
1463 1463 1463 1463 1463 1464 1464 1465 1465 1465 1466 1466 1467 1467 1467 1468 1468 1468 1468 1468 1468 1468 1468 1468 1468 1468 1468 1468 1468 1468 1469 1469 1469 1470 1470 1471 1471 1471 1470 1470 1469 1469 1468 1468 1467 1466 1466 1464 1463 1462 1461 1460 1459 1457 1455 1453 1450 1448 1446 1443 1440 1437 1434 1432 1429 1426 1422 1419 1415 1412 1410 1407 1404 1402 1400 1397 1395 1394 1392 1391 1390 1389 1388 1387 1386